Weather in Nova Gorica

Slovenia     45°57′45″N   13°38′57″E
temp.,
°C
wind,
m/s
gust,
m/s
humid.,
%
clouds,
%
prec.,
mm/h
press.,
hPa
HPBL,
m
10 may, mon
mon1023:00+11n009453 0.0 101910
02:00+10s0095100 0.0 101811
05:00+10ssw0195100 0.0 101811
08:00+13sw1283100 0.0 1018135
11:00+17wsw24495 0.0 1018957
14:00+19wsw36511 0.0 10171148
17:00+18wsw24565 0.0 1016879
20:00+13w11815 0.0 101611
11 may, tue
tue1123:00+11ene11836 0.0 101711
02:00+11ene1175100 0.0 101612
05:00+11ene116659 0.0 101514
08:00+15ne11592 0.0 101490
11:00+19wsw254817 0.0 10131116
14:00+17wsw3572100 0.1 1013978
17:00+16n1372100 0.2 1011428
20:00+14ne1180100 0.2 100913
12 may, wed
wed1223:00+12w1189100 0.2 100919
02:00+11se0096100 1.2 100716
05:00+11se1298100 5.6 1006113
08:00+11se1297100 7.8 1007172
11:00+11sw12100100 9.2 1007194
14:00+12nw1289100 15.5 1007492
17:00+11e0196100 4.0 100791
20:00+10ese1196100 4.4 100731
13 may, thu
thu1323:00+10ene1195100 0.8 100619
02:00+10ne1197100 9.8 100541
05:00+9ne1197100 4.4 100424
08:00+9ene0097100 5.3 100558
11:00+10wsw1195100 0.7 1005282
14:00+10sw1197100 3.3 1006146
17:00+10se1199100 5.2 1006115
20:00+9se119899 6.4 100634
14 may, fri
fri1423:00+9sse119790 0.1 100723
02:00+9ese1198100 1.5 100831
05:00+9se1298100 2.8 100872
08:00+10sse1393100 3.6 1008221
11:00+11s1291100 1.1 1009364
14:00+10ssw2495100 3.8 1010422
17:00+11ssw1393100 2.2 1010424
20:00+10sw0192100 3.1 101113